This is the latest recevied weather packets stored in our database for station/object W7PLC. If no packets are shown the sender has not sent any weather packets the latest 1 day(s).
| Time | Temp. | Humidity | Pressure | Rain* | Wind** | Luminosity | Snow |
|---|---|---|---|---|---|---|---|
| 1778038408 | 14.44° C | 86% | 1013.9 hPa | 0 mm | 0 m/s | 0 W/m² | - |
| 1778038105 | 14.44° C | 86% | 1013.8 hPa | 0 mm | 0 m/s | 0 W/m² | - |
| 1778037802 | 15° C | 84% | 1013.5 hPa | 0 mm | 0 m/s | 1 W/m² | - |
| 1778037499 | 15° C | 83% | 1013.6 hPa | 0 mm | 0 m/s | 2 W/m² | - |
| 1778037196 | 15° C | 83% | 1013.4 hPa | 0 mm | 0 m/s | 3 W/m² | - |
| 1778036897 | 15.56° C | 81% | 1013.3 hPa | 0 mm | 0 m/s | 4 W/m² | - |
| 1778036592 | 15.56° C | 80% | 1013.5 hPa | 0 mm | 0.45 m/s, 45° | 4 W/m² | - |
| 1778036288 | 15.56° C | 80% | 1013.4 hPa | 0 mm | 0 m/s | 6 W/m² | - |
| 1778035984 | 16.11° C | 79% | 1013.5 hPa | 0 mm | 0 m/s | 8 W/m² | - |
| 1778035682 | 16.11° C | 79% | 1013.4 hPa | 0 mm | 0 m/s | 8 W/m² | - |
| 1778035378 | 16.11° C | 79% | 1013.4 hPa | 0 mm | 0 m/s | 10 W/m² | - |
| 1778035074 | 16.67° C | 78% | 1013.4 hPa | 0 mm | 0 m/s | 12 W/m² | - |
| 1778034772 | 16.67° C | 76% | 1013.2 hPa | 0 mm | 0 m/s | 12 W/m² | - |
| 1778034468 | 16.67° C | 76% | 1013.5 hPa | 0 mm | 0 m/s | 13 W/m² | - |
| 1778034166 | 16.67° C | 75% | 1013.4 hPa | 0 mm | 0 m/s | 15 W/m² | - |
| 1778033864 | 16.67° C | 76% | 1013.4 hPa | 0 mm | 0 m/s | 15 W/m² | - |
| 1778033561 | 17.22° C | 76% | 1013.4 hPa | 0 mm | 0 m/s | 16 W/m² | - |
| 1778033257 | 17.22° C | 75% | 1013.4 hPa | 0 mm | 0 m/s | 17 W/m² | - |
| 1778032955 | 17.22° C | 75% | 1013.5 hPa | 0 mm | 0.45 m/s, 5° | 19 W/m² | - |
| 1778032653 | 17.22° C | 74% | 1013.5 hPa | 0 mm | 0.45 m/s, 45° | 19 W/m² | - |
| 1778032350 | 17.22° C | 74% | 1013.4 hPa | 0 mm | 0.45 m/s, 44° | 20 W/m² | - |
| 1778032047 | 17.78° C | 73% | 1013.3 hPa | 0 mm | 0.45 m/s, 73° | 22 W/m² | - |
| 1778031743 | 17.78° C | 74% | 1013.2 hPa | 0 mm | 0.45 m/s, 44° | 22 W/m² | - |
| 1778031441 | 17.78° C | 73% | 1013.3 hPa | 0 mm | 0.45 m/s, 49° | 23 W/m² | - |
| 1778031138 | 18.33° C | 72% | 1013.3 hPa | 0 mm | 0 m/s | 26 W/m² | - |
* Rain latest hour (hover to see other rain measurements)
** Current wind speed in m/s (hover to see current wind gust speed)